Provincetown, Massachusetts, United States (02657)
Lat: 42.06N, Lon: 70.18W
Wx Zone: MAZ022
Local Info
Past Weather Observations for Today

NOTE: This archive is for the closest National Weather Service station to Provincetown. Information may differ from the station used for current weather conditions.

Click here for Long-term Archive

Time Weather Temperature Dewpoint Humidity Pressure Winds Precip Visibility
14:35
Clear
54°F / 12°C 39°F / 4°C 58% 30.12 in
(1020 mb)
SW 10.4 mph
(SW 17 kph)
- 10SM
14:15
Clear
54°F / 12°C 37°F / 3°C 54% 30.12 in
(1020 mb)
SW 9.2 mph
(SW 15 kph)
- 10SM
13:55
Partly Cloudy
55°F / 13°C 39°F / 4°C 55% 30.12 in
(1020 mb)
SW 11.5 mph
(SW 19 kph)
- 10SM
13:35
Overcast
54°F / 12°C 37°F / 3°C 54% 30.12 in
(1020 mb)
SW 11.5 mph
(SW 19 kph)
- 10SM
13:15
Overcast
54°F / 12°C 37°F / 3°C 54% 30.12 in
(1020 mb)
SW 12.7 mph
(SW 20 kph)
- 10SM
12:55
Overcast
54°F / 12°C 39°F / 4°C 58% 30.12 in
(1020 mb)
SSE 12.7 mph
(SSE 20 kph)
- 10SM
12:35
Mostly Cloudy
52°F / 11°C 37°F / 3°C 58% 30.12 in
(1020 mb)
SW 10.4 mph
(SW 17 kph)
- 10SM
12:15
Mostly Cloudy
54°F / 12°C 37°F / 3°C 54% 30.12 in
(1020 mb)
SW 15 mph
(SW 24 kph)
- 10SM
11:55
Mostly Cloudy
52°F / 11°C 37°F / 3°C 58% 30.12 in
(1020 mb)
SW 12.7 mph
(SW 20 kph)
- 10SM
11:35
Mostly Cloudy
52°F / 11°C 37°F / 3°C 58% 30.15 in
(1021 mb)
SW 11.5 mph
(SW 19 kph)
- 10SM
11:15
Mostly Cloudy
52°F / 11°C 37°F / 3°C 58% 30.15 in
(1021 mb)
SSW 8.1 mph
(SSW 13 kph)
- 10SM
10:55
Overcast
52°F / 11°C 37°F / 3°C 58% 30.15 in
(1021 mb)
SSW 13.8 mph
(SSW 22 kph)
- 10SM
10:35
Mostly Cloudy
52°F / 11°C 36°F / 2°C 54% 30.18 in
(1022 mb)
SW 13.8 mph
(SW 22 kph)
- 10SM
10:15
Mostly Cloudy
52°F / 11°C 36°F / 2°C 54% 30.15 in
(1021 mb)
SW 12.7 mph
(SW 20 kph)
- 10SM
09:55
Mostly Cloudy
50°F / 10°C 36°F / 2°C 58% 30.15 in
(1021 mb)
SW 13.8 mph
(SW 22 kph)
- 10SM
09:35
Overcast
48°F / 9°C 36°F / 2°C 62% 30.15 in
(1021 mb)
SW 13.8 mph
(SW 22 kph)
- 10SM
09:15
Overcast
48°F / 9°C 34°F / 1°C 58% 30.15 in
(1021 mb)
SW 13.8 mph
(SW 22 kph)
- 10SM
08:55
Overcast
48°F / 9°C 34°F / 1°C 58% 30.15 in
(1021 mb)
SW 17.3 mph
(SW 28 kph)
- 10SM
08:35
Mostly Cloudy
48°F / 9°C 34°F / 1°C 58% 30.15 in
(1021 mb)
SW 15 mph
(SW 24 kph)
- 10SM
08:15
Overcast
48°F / 9°C 32°F / 0°C 54% 30.15 in
(1021 mb)
SW 15 mph
(SW 24 kph)
- 10SM
07:55
Overcast
48°F / 9°C 32°F / 0°C 54% 30.15 in
(1021 mb)
SW 15 mph
(SW 24 kph)
- 10SM
07:35
Overcast
46°F / 8°C 34°F / 1°C 62% 30.15 in
(1021 mb)
SW 16.1 mph
(SW 26 kph)
- 10SM
07:15
Overcast
46°F / 8°C 34°F / 1°C 62% 30.12 in
(1020 mb)
SW 15 mph
(SW 24 kph)
- 10SM
06:55
Overcast
46°F / 8°C 32°F / 0°C 57% 30.12 in
(1020 mb)
SW 15 mph
(SW 24 kph)
- 10SM
06:35
Overcast
48°F / 9°C 36°F / 2°C 62% 30.12 in
(1020 mb)
SW 15 mph
(SW 24 kph)
- 10SM
06:15
Overcast
48°F / 9°C 32°F / 0°C 54% 30.12 in
(1020 mb)
SW 12.7 mph
(SW 20 kph)
- 10SM
05:55
Overcast
48°F / 9°C 34°F / 1°C 58% 30.12 in
(1020 mb)
SW 15 mph
(SW 24 kph)
- 10SM
05:35
Overcast
48°F / 9°C 34°F / 1°C 58% 30.12 in
(1020 mb)
SSW 17.3 mph
(SSW 28 kph)
- 10SM
05:15
Overcast
48°F / 9°C 30°F / -1°C 50% 30.09 in
(1019 mb)
SSW 13.8 mph
(SSW 22 kph)
- 10SM
04:55
Overcast
48°F / 9°C 30°F / -1°C 50% 30.09 in
(1019 mb)
SSW 16.1 mph
(SSW 26 kph)
- 10SM
04:35
Overcast
48°F / 9°C 30°F / -1°C 50% 30.12 in
(1020 mb)
SSW 20.7 mph
(SSW 33 kph)
- 10SM
04:15
Overcast
46°F / 8°C 30°F / -1°C 53% 30.09 in
(1019 mb)
SSW 17.3 mph
(SSW 28 kph)
- 10SM
03:55
Overcast
46°F / 8°C 28°F / -2°C 50% 30.09 in
(1019 mb)
SSW 17.3 mph
(SSW 28 kph)
- 10SM
03:35
Overcast
48°F / 9°C 30°F / -1°C 50% 30.09 in
(1019 mb)
SSW 18.4 mph
(SSW 30 kph)
- 10SM
03:15
Overcast
48°F / 9°C 28°F / -2°C 46% 30.09 in
(1019 mb)
SSW 23 mph
(SSW 37 kph)
- 10SM
02:55
Overcast
48°F / 9°C 32°F / 0°C 54% 30.09 in
(1019 mb)
SSW 18.4 mph
(SSW 30 kph)
- 10SM
02:35
Overcast
48°F / 9°C 30°F / -1°C 50% 30.09 in
(1019 mb)
SSW 18.4 mph
(SSW 30 kph)
- 10SM
02:15
Overcast
48°F / 9°C 32°F / 0°C 54% 30.09 in
(1019 mb)
SSW 19.6 mph
(SSW 32 kph)
- 10SM
01:55
Overcast
48°F / 9°C 32°F / 0°C 54% 30.09 in
(1019 mb)
SSW 18.4 mph
(SSW 30 kph)
- 10SM
01:35
Overcast
46°F / 8°C 32°F / 0°C 57% 30.09 in
(1019 mb)
SSW 17.3 mph
(SSW 28 kph)
- 10SM
01:15
Overcast
46°F / 8°C 32°F / 0°C 57% 30.09 in
(1019 mb)
SSW 15 mph
(SSW 24 kph)
- 10SM
00:55
Overcast
46°F / 8°C 32°F / 0°C 57% 30.09 in
(1019 mb)
SSW 16.1 mph
(SSW 26 kph)
- 10SM
00:35
Overcast
46°F / 8°C 30°F / -1°C 53% 30.09 in
(1019 mb)
SW 18.4 mph
(SW 30 kph)
- 10SM
00:15
Overcast
46°F / 8°C 32°F / 0°C 57% 30.09 in
(1019 mb)
SW 23 mph
(SW 37 kph)
- 10SM
Time Weather Temperature Dewpoint Humidity Pressure Winds Precip Visibility


Weather for websites

WeatherForYou.com, LLC is not responsible for any damages or problems caused by this service. Current weather conditions are obtained from the closest station including government and personal stations which may have varying degrees of accuracy. Weather forecasts are derived from the NOAA NDFD. Like all things, this site belongs to Jesus Christ... He just trusts me to maintain it. If you have any questions or comments email webmaster@weatherforyou.com

Copyright © 2014, WeatherForYou.com LLC. All rights reserved.